Home   Weather   Braga   Past weeks

Flag for Portugal Past Weather in Braga, Portugal — Yesterday and Last 2 Weeks

Now
47 °F

Cool.


Feels Like: 45 °F
Forecast: N/A
Wind: 5 mph from Northwest

Location: Porto / Pedras Rubras

Current Time: Jan 19, 2017 at 5:27:36 pm

Latest Report: Jan 19, 2017 at 4:00 pm


Visibility: N/A

Pressure: 30.13 "Hg

Humidity: 47%

Dew Point: 28 °F

Location of BragaLocation

Past Weather in Braga — Graph

°F

Braga Temperature Yesterday

Maximum temperature yesterday: 50 °F (at 2:00 pm)
Minimum temperature yesterday: 35 °F (at 11:00 pm)
Average temperature yesterday: 43 °F

High & Low Weather Summary for the Past Weeks

 TemperatureHumidityPressure
High63 °F (Jan 6, 2:00 pm)94% (Jan 12, 2:00 am)30.55 "Hg (Jan 12, 2:00 am)
Low32 °F (Jan 19, 12:00 am)19% (Jan 18, 2:00 pm)30.13 "Hg (Jan 19, 4:00 pm)
Average49 °F65%30.35 "Hg
* Reported Jan 4 4:00 pm — Jan 19 4:00 pm, Braga, Weather by CustomWeather, © 2017

Note: Actual official high and low records may vary slightly from our data, if they occured in-between our weather recording intervals... More about our weather records

Advertising

Braga Weather History for the Previous 24 Hours

Scroll right to see more
 ConditionsComfort  
Time TempWeatherWind HumidityBarometerVisibility
4:00 pm
Thu, Jan 19
47 °FCool.5 mph47%30.13 "HgN/A
3:00 pm49 °FCool.3 mph33%30.14 "HgN/A
2:00 pm49 °FCool.5 mph33%30.14 "HgN/A
1:00 pm47 °FCool.3 mph36%30.17 "HgN/A
11:00 am43 °FQuite cool.7 mph40%30.22 "HgN/A
9:00 am36 °FChilly.6 mph56%30.23 "HgN/A
8:00 am34 °FChilly.5 mph58%30.23 "HgN/A
7:00 am34 °FChilly.5 mph58%30.23 "HgN/A
6:00 am36 °FChilly.7 mph55%30.22 "HgN/A
5:00 am35 °FChilly.3 mph56%30.22 "HgN/A
4:00 am35 °FChilly.3 mph57%30.23 "HgN/A
3:00 am34 °FChilly.5 mph57%30.23 "HgN/A
2:00 am35 °FChilly.3 mph55%30.22 "HgN/A
1:00 am34 °FChilly.2 mph56%30.22 "HgN/A
12:00 am32 °FChilly.3 mph67%30.22 "HgN/A
11:00 pm
Wed, Jan 18
35 °FChilly.2 mph56%30.21 "HgN/A
10:00 pm36 °FChilly.3 mph56%30.20 "HgN/A
9:00 pm38 °FChilly.2 mph51%30.19 "HgN/A
8:00 pm41 °FQuite cool.2 mph42%30.19 "HgN/A
7:00 pm44 °FQuite cool.2 mph35%30.18 "HgN/A
6:00 pm44 °FQuite cool.2 mph34%30.18 "HgN/A
5:00 pm47 °FCool.2 mph27%30.17 "HgN/A
Weather by CustomWeather, © 2017

See weather overviewHow to use our weather pages